Tchien Airport

Jump to: basic info | weather | comments

Related pages: nearby airports | nearby navaids | notams | map

Basic information (top)

Codes: THC GLTN
Location: lon 6.045650, lat -8.138723, elev 790 ft / 241 m msl
Status: small_airport
Scheduled airline service: no
Links: Wikipedia Mobile

Weather (top)

Current conditions for Man Airport 81nm (149km) NNE (rec'd 2013/11/21 04:00Z):

DIMN 210400Z NOL

Airport forecast for Roberts International Airport 133nm (247km) W (rec'd 2014/09/18 18:21Z):

TAF GLRB 181600Z 1818/1924 24012KT 7000 TSRA SCT003 BKN013 FEW023CB 
      TEMPO 1220/1902 06010KT 5000 FM 190300 02010KT 8000 TSRA/TS SCT004 BKN014 FEW024CB 
      BECMG 1907/1909 20010KT 9000

Latest comments (top)

No comments yet for Tchien Airport

More... (top)

See also NOTAMs and nearby airports and navaids, or visit the Tchien Airport page at the main OurAirports website..